Find STARLINK-37516

NORAD ID: 68915 Constellation: starlink operational
LEOCIRCULARRETROGRADE

リアルタイム位置

3D地球を読み込み中...

STARLINK-37516について

説明を読み込み中...

次回通過

Passes for default location (London). Set your location on the main map for personalized predictions.

高度履歴

Loading altitude history...

軌道要素

1 68915U 26097W 26125.50001156 -.01961480 11181-2 -44405-2 0 9991
2 68915 97.2869 320.4993 0001462 75.9316 168.6487 15.97719864 2061
Epoch: May 5, 2026 • Age: 8 hours